Lid_Strength_Index
2 2 3 3 4 4 3 4 4 4 4 4 4 4 4 4 4 4 4 4 4 3 3 3 3 2 3 6 7 0 -2 -2 3 3 4 4 5 5 7 7 8 8 7 7 6 6 7
2 2 3 3 3 3 4 4 4 4 4 4 4 4 4 4 4 4 4 4 3 4 3 3 3 2 4 8 4 -1 -0 3 3 4 5 4 4 4 6 7 7 7 7 6 6 5 6
2 2 3 3 3 4 4 4 4 4 4 4 4 4 4 4 4 4 4 4 4 4 3 3 2 2 6 7 3 1 2 3 3 4 5 4 4 5 6 7 6 7 7 7 6 6 6
2 2 3 3 3 4 4 4 4 4 4 4 4 4 4 4 4 4 4 4 4 3 3 2 2 3 7 4 3 2 3 4 4 4 4 3 3 5 6 6 7 8 8 9 7 7 7
2 2 3 3 4 4 4 4 4 4 4 4 4 5 5 4 4 4 4 4 3 2 2 1 4 6 7 2 4 3 2 4 4 4 4 4 5 6 6 8 9 9 11 10 9 7 7
2 2 3 3 4 4 4 4 4 4 4 4 4 5 5 4 4 4 4 4 1 1 2 2 3 6 5 6 4 4 3 4 5 5 6 6 6 7 7 8 12 11 11 10 9 8 7
3 3 3 3 4 4 4 5 5 5 4 4 4 5 5 5 4 5 5 4 5 5 4 5 6 6 6 4 2 4 4 5 5 5 8 7 8 9 8 8 8 9 9 10 8 7 7
3 3 3 4 5 5 5 5 5 5 5 5 5 5 5 5 5 5 5 5 6 5 7 5 5 5 5 4 6 5 4 6 7 8 8 8 9 7 8 8 8 9 9 9 8 7 7
3 3 4 5 5 5 5 5 6 6 6 6 6 6 5 5 5 5 5 5 5 5 7 7 6 6 6 5 7 6 5 6 7 8 8 9 8 7 8 8 9 8 9 9 9 8 8
3 4 4 5 5 5 5 6 6 6 6 6 6 6 6 6 8 8 5 6 6 6 11 11 7 6 5 6 8 4 4 5 7 8 8 8 7 8 8 9 8 10 7 8 9 9 11
4 4 4 5 5 6 6 6 6 6 6 6 6 6 6 6 7 6 6 6 5 5 16 10 7 3 5 7 6 6 4 5 7 8 8 8 8 8 9 8 7 8 7 8 8 9 9
3 4 4 5 5 6 6 6 6 6 6 6 6 5 5 6 7 5 5 5 3 10 15 8 6 6 7 6 6 6 5 4 5 7 7 7 6 7 7 7 7 7 8 9 9 9 13
3 4 5 5 6 6 6 6 6 6 6 6 6 6 6 6 7 5 5 4 11 14 8 9 9 7 8 8 8 7 8 8 9 10 10 8 8 7 7 8 7 8 9 13 14 14 14
4 4 5 5 6 6 6 6 6 6 6 6 6 7 6 5 5 5 3 7 14 12 10 7 7 7 9 9 8 9 9 10 9 9 10 11 12 8 7 7 8 8 9 12 17 15 13
4 5 5 6 6 6 6 6 6 6 6 6 7 7 5 4 5 4 5 11 12 10 8 8 8 10 10 8 9 9 11 11 10 9 11 11 11 8 8 7 8 9 11 9 12 12 13
4 5 6 6 6 6 6 6 6 6 6 6 9 8 6 5 5 4 8 12 9 7 8 7 11 9 11 10 9 9 10 10 11 9 8 10 13 9 8 7 8 9 9 12 11 16 17
5 5 6 6 6 6 6 6 6 6 6 7 8 8 5 6 4 6 10 10 9 8 7 9 9 10 10 11 10 10 10 9 9 8 8 9 10 11 8 10 11 10 10 11 11 12 15
5 6 6 6 6 6 6 6 6 6 6 7 8 10 6 6 8 10 10 11 9 9 8 8 8 9 10 11 11 11 11 10 8 8 10 8 11 14 12 10 11 11 11 11 14 15 13
5 6 6 6 6 6 6 6 6 6 6 8 10 10 6 6 11 11 10 10 9 9 9 9 9 9 9 10 11 10 10 9 8 8 10 9 11 14 14 13 12 12 12 11 11 11 13
6 6 6 6 7 6 6 6 6 6 6 8 10 12 9 9 10 11 12 11 10 8 8 8 9 8 9 10 9 10 10 9 9 7 7 8 11 12 14 13 11 13 12 11 12 13 13
6 6 6 6 6 7 6 6 5 5 6 8 10 12 12 13 12 11 11 11 11 11 8 8 9 9 9 11 11 11 10 10 9 8 9 9 12 11 11 11 11 11 12 12 13 12 14
6 6 6 6 6 6 6 6 5 5 7 9 11 12 10 12 12 12 11 12 11 11 10 10 10 10 9 10 10 11 10 10 10 9 9 10 13 12 14 12 12 13 12 11 11 11 12
6 6 6 6 6 7 6 6 6 6 7 10 10 10 10 12 12 12 12 12 11 10 9 9 9 10 10 9 7 7 7 8 8 9 10 10 12 13 16 12 12 15 12 12 12 11 11
6 6 6 6 6 6 6 6 6 6 7 9 10 10 11 14 12 12 12 12 12 11 11 9 8 10 8 7 6 7 7 8 8 9 8 11 11 12 14 13 18 12 9 9 10 9 9
6 6 6 6 6 6 6 6 6 6 6 8 9 9 10 13 12 13 12 12 11 10 10 10 9 8 7 8 10 11 11 11 10 9 10 9 11 13 15 14 13 11 10 10 10 11 8
5 6 6 6 6 6 6 6 6 6 6 7 8 8 9 12 13 11 12 11 12 12 11 10 7 7 8 9 11 14 15 13 13 12 10 10 10 11 14 17 18 12 8 7 8 12 7
6 6 6 6 6 6 6 6 7 6 6 7 8 8 9 12 10 10 12 11 10 11 12 10 10 9 8 10 13 14 14 11 14 14 13 12 12 13 14 15 13 9 7 6 14 12 7
6 6 6 6 6 6 6 6 6 6 6 6 7 7 9 11 10 10 9 10 10 10 12 10 10 10 9 11 12 12 13 12 12 11 12 12 13 13 12 14 16 7 7 11 8 6 6
6 6 6 6 6 6 6 6 5 5 5 6 9 7 7 10 10 9 8 7 8 7 9 9 10 10 9 10 10 10 12 11 12 14 10 13 10 10 11 10 7 6 6 5 5 5 5